• In Czech Republic
  • List of Countries
  • For 7 days
  • Water Temperature
  • Satellite Maps
  • Weather Map
  • Weather Widgets
  • user-avatar
    Login

    Hourly Weather Iwaniszki

    Today, 19 July, Thursday

    Time Temperature Precipitation Wind Pressure Humidity
    00:00 +18°C° 0 mm 2 mps 734 mmHg 93%
    01:00 +18°C° 0 mm 2 mps 734 mmHg 93%
    02:00 +19°C° 0 mm 1 mps 734 mmHg 93%
    03:00 +18°C° 0 mm 1 mps 734 mmHg 93%
    04:00 +17°C° 0 mm 2 mps 734 mmHg 93%
    05:00 +17°C° 0 mm 2 mps 734 mmHg 94%
    06:00 +18°C° 0 mm 2 mps 734 mmHg 90%
    07:00 +20°C° 0 mm 2 mps 734 mmHg 87%
    08:00 +21°C° 0 mm 2 mps 735 mmHg 83%
    09:00 +24°C° 0.1 mm 3 mps 734 mmHg 76%
    10:00 +25°C° 0.1 mm 3 mps 734 mmHg 68%
    11:00 +27°C° 0.1 mm 4 mps 734 mmHg 61%
    12:00 +27°C° 0.1 mm 4 mps 734 mmHg 60%
    13:00 +27°C° 0.1 mm 4 mps 734 mmHg 59%
    14:00 +27°C° 0.1 mm 4 mps 734 mmHg 58%
    15:00 +27°C° 0.2 mm 4 mps 734 mmHg 61%
    16:00 +27°C° 0.2 mm 4 mps 734 mmHg 65%
    17:00 +26°C° 0.2 mm 4 mps 734 mmHg 69%
    18:00 +25°C° 0.2 mm 4 mps 734 mmHg 74%
    19:00 +22°C° 0.2 mm 3 mps 734 mmHg 80%
    20:00 +21°C° 0.2 mm 3 mps 734 mmHg 86%
    21:00 +20°C° 0 mm 3 mps 734 mmHg 89%
    22:00 +19°C° 0 mm 3 mps 734 mmHg 92%
    23:00 +18°C° 0 mm 3 mps 734 mmHg 95%

    Tomorrow, 20 July, Friday

    Time Temperature Precipitation Wind Pressure Humidity
    00:00 +18°C° 0 mm 3 mps 734 mmHg 95%
    01:00 +17°C° 0 mm 3 mps 734 mmHg 96%
    02:00 +17°C° 0 mm 3 mps 734 mmHg 96%
    03:00 +17°C° 0 mm 3 mps 734 mmHg 96%
    04:00 +17°C° 0 mm 3 mps 734 mmHg 97%
    05:00 +17°C° 0 mm 3 mps 734 mmHg 97%
    06:00 +18°C° 0 mm 3 mps 734 mmHg 93%
    07:00 +19°C° 0 mm 3 mps 734 mmHg 90%
    08:00 +20°C° 0 mm 3 mps 735 mmHg 87%
    09:00 +21°C° 0.5 mm 4 mps 735 mmHg 84%
    10:00 +23°C° 0.5 mm 4 mps 734 mmHg 80%
    11:00 +25°C° 0.5 mm 4 mps 734 mmHg 77%
    12:00 +25°C° 0.4 mm 4 mps 734 mmHg 75%
    13:00 +26°C° 0.4 mm 4 mps 734 mmHg 73%
    14:00 +26°C° 0.4 mm 5 mps 734 mmHg 71%
    15:00 +26°C° 0.3 mm 5 mps 734 mmHg 72%
    16:00 +26°C° 0.3 mm 5 mps 734 mmHg 74%
    17:00 +25°C° 0.3 mm 5 mps 734 mmHg 75%
    18:00 +23°C° 0 mm 5 mps 734 mmHg 78%
    19:00 +22°C° 0 mm 5 mps 734 mmHg 82%
    20:00 +21°C° 0 mm 4 mps 734 mmHg 85%
    21:00 +20°C° 0 mm 4 mps 735 mmHg 88%
    22:00 +18°C° 0 mm 4 mps 735 mmHg 91%
    23:00 +17°C° 0 mm 4 mps 735 mmHg 94%

    Day after tomorrow, 21 July, Saturday

    Time Temperature Precipitation Wind Pressure Humidity
    00:00 +17°C° 0 mm 4 mps 735 mmHg 94%
    01:00 +17°C° 0 mm 4 mps 735 mmHg 95%
    02:00 +15°C° 0 mm 4 mps 735 mmHg 96%
    03:00 +15°C° 0 mm 4 mps 735 mmHg 96%
    04:00 +15°C° 0 mm 4 mps 735 mmHg 96%
    05:00 +14°C° 0 mm 3 mps 735 mmHg 96%
    06:00 +16°C° 0 mm 3 mps 735 mmHg 92%
    07:00 +18°C° 0 mm 3 mps 735 mmHg 88%
    08:00 +19°C° 0 mm 3 mps 735 mmHg 84%
    09:00 +20°C° 0 mm 3 mps 735 mmHg 79%
    10:00 +22°C° 0 mm 4 mps 735 mmHg 74%
    11:00 +23°C° 0 mm 4 mps 735 mmHg 69%
    12:00 +25°C° 0 mm 4 mps 735 mmHg 67%
    13:00 +25°C° 0 mm 4 mps 735 mmHg 65%
    14:00 +26°C° 0 mm 4 mps 735 mmHg 63%
    15:00 +26°C° 0 mm 4 mps 735 mmHg 64%
    16:00 +25°C° 0 mm 4 mps 735 mmHg 65%
    17:00 +25°C° 0 mm 4 mps 735 mmHg 66%
    18:00 +23°C° 0 mm 4 mps 735 mmHg 72%
    19:00 +22°C° 0 mm 3 mps 735 mmHg 78%
    20:00 +20°C° 0 mm 3 mps 735 mmHg 83%
    21:00 +19°C° 0 mm 3 mps 735 mmHg 87%
    22:00 +18°C° 0 mm 2 mps 735 mmHg 90%
    23:00 +16°C° 0 mm 2 mps 735 mmHg 94%

    22 July, Sunday

    Time Temperature Precipitation Wind Pressure Humidity
    00:00 +16°C° 0 mm 2 mps 735 mmHg 94%
    01:00 +15°C° 0 mm 2 mps 735 mmHg 94%
    02:00 +15°C° 0 mm 2 mps 735 mmHg 95%
    03:00 +15°C° 0 mm 2 mps 735 mmHg 95%
    04:00 +15°C° 0 mm 2 mps 735 mmHg 95%
    05:00 +14°C° 0 mm 2 mps 735 mmHg 95%
    06:00 +16°C° 0 mm 2 mps 735 mmHg 91%
    07:00 +17°C° 0 mm 2 mps 735 mmHg 87%
    08:00 +19°C° 0 mm 2 mps 736 mmHg 83%
    09:00 +20°C° 0 mm 2 mps 736 mmHg 78%
    10:00 +21°C° 0 mm 2 mps 736 mmHg 74%
    11:00 +24°C° 0 mm 2 mps 736 mmHg 69%
    12:00 +24°C° 0.1 mm 2 mps 735 mmHg 66%
    13:00 +25°C° 0.1 mm 2 mps 735 mmHg 62%
    14:00 +26°C° 0.1 mm 3 mps 735 mmHg 58%
    15:00 +26°C° 0.1 mm 3 mps 735 mmHg 61%
    16:00 +26°C° 0.1 mm 3 mps 735 mmHg 63%
    17:00 +25°C° 0.1 mm 4 mps 735 mmHg 65%
    18:00 +24°C° 0 mm 3 mps 735 mmHg 71%
    19:00 +22°C° 0 mm 3 mps 735 mmHg 77%
    20:00 +20°C° 0 mm 2 mps 735 mmHg 83%
    21:00 +19°C° 0 mm 2 mps 735 mmHg 86%
    22:00 +17°C° 0 mm 2 mps 735 mmHg 89%
    23:00 +16°C° 0 mm 2 mps 735 mmHg 93%

    23 July, Monday

    Time Temperature Precipitation Wind Pressure Humidity
    00:00 +15°C° 0 mm 2 mps 735 mmHg 93%
    01:00 +14°C° 0 mm 3 mps 735 mmHg 93%
    02:00 +13°C° 0 mm 3 mps 735 mmHg 94%
    03:00 +13°C° 0 mm 3 mps 735 mmHg 93%
    04:00 +14°C° 0 mm 2 mps 735 mmHg 93%
    05:00 +13°C° 0 mm 2 mps 735 mmHg 93%
    06:00 +14°C° 0 mm 3 mps 736 mmHg 88%
    07:00 +17°C° 0 mm 3 mps 736 mmHg 82%
    08:00 +19°C° 0 mm 3 mps 736 mmHg 77%
    09:00 +20°C° 0 mm 3 mps 736 mmHg 73%
    10:00 +21°C° 0 mm 3 mps 736 mmHg 69%
    11:00 +24°C° 0 mm 3 mps 736 mmHg 65%
    12:00 +24°C° 0.1 mm 3 mps 736 mmHg 64%
    13:00 +25°C° 0.1 mm 4 mps 736 mmHg 63%
    14:00 +25°C° 0.1 mm 4 mps 736 mmHg 62%
    15:00 +25°C° 0.1 mm 4 mps 736 mmHg 64%
    16:00 +23°C° 0.1 mm 4 mps 736 mmHg 65%
    17:00 +23°C° 0.1 mm 5 mps 736 mmHg 67%
    18:00 +21°C° 0 mm 4 mps 736 mmHg 73%
    19:00 +20°C° 0 mm 4 mps 736 mmHg 78%
    20:00 +18°C° 0 mm 3 mps 736 mmHg 83%
    21:00 +17°C° 0 mm 3 mps 736 mmHg 87%
    22:00 +16°C° 0 mm 3 mps 737 mmHg 91%
    23:00 +14°C° 0 mm 2 mps 737 mmHg 95%

    24 July, Tuesday

    Time Temperature Precipitation Wind Pressure Humidity
    00:00 +14°C° 0 mm 2 mps 737 mmHg 95%
    01:00 +14°C° 0 mm 2 mps 737 mmHg 96%
    02:00 +13°C° 0 mm 2 mps 737 mmHg 97%
    03:00 +13°C° 0 mm 2 mps 737 mmHg 97%
    04:00 +13°C° 0 mm 2 mps 737 mmHg 98%
    05:00 +13°C° 0 mm 2 mps 737 mmHg 98%
    06:00 +14°C° 0 mm 2 mps 737 mmHg 94%
    07:00 +16°C° 0 mm 2 mps 737 mmHg 90%
    08:00 +17°C° 0 mm 2 mps 737 mmHg 86%
    09:00 +19°C° 0 mm 2 mps 737 mmHg 79%
    10:00 +20°C° 0 mm 2 mps 737 mmHg 72%
    11:00 +23°C° 0 mm 2 mps 737 mmHg 65%
    12:00 +24°C° 0 mm 2 mps 737 mmHg 62%
    13:00 +25°C° 0 mm 2 mps 737 mmHg 60%
    14:00 +25°C° 0 mm 2 mps 737 mmHg 57%
    15:00 +25°C° 0 mm 2 mps 737 mmHg 58%
    16:00 +25°C° 0 mm 2 mps 737 mmHg 59%
    17:00 +25°C° 0 mm 2 mps 737 mmHg 60%
    18:00 +24°C° 0 mm 2 mps 737 mmHg 67%
    19:00 +23°C° 0 mm 2 mps 737 mmHg 73%
    20:00 +20°C° 0 mm 2 mps 737 mmHg 79%
    21:00 +19°C° 0 mm 2 mps 737 mmHg 83%
    22:00 +18°C° 0 mm 2 mps 737 mmHg 86%
    23:00 +17°C° 0 mm 2 mps 738 mmHg 90%
    Show more